QPF
0.00 0.00 0.00 0.00 0.00 0.00 0.00 0.00 0.00 0.00 0.00 0.00 0.00 0.00 0.00 0.00 0.00 0.00 0.00 0.00 0.00 0.00
0.00 0.00 0.00 0.00 0.00 0.00 0.00 0.00 0.00 0.00 0.00 0.00 0.00 0.00 0.00 0.00 0.00 0.00 0.00 0.00 0.00 0.00
0.00 0.00 0.00 0.00 0.00 0.00 0.00 0.00 0.00 0.00 0.00 0.00 0.00 0.00 0.00 0.00 0.00 0.00 0.00 0.00 0.00 0.00
0.00 0.00 0.00 0.00 0.00 0.00 0.00 0.00 0.00 0.00 0.00 0.00 0.00 0.00 0.00 0.00 0.00 0.00 0.00 0.00 0.00 0.00
0.00 0.00 0.00 0.00 0.00 0.00 0.00 0.00 0.00 0.00 0.00 0.00 0.00 0.00 0.00 0.00 0.00 0.00 0.00 0.00 0.00 0.00
0.00 0.00 0.00 0.00 0.00 0.00 0.00 0.00 0.00 0.00 0.00 0.00 0.00 0.00 0.00 0.00 0.00 0.00 0.00 0.00 0.00 0.00
0.00 0.00 0.00 0.00 0.00 0.00 0.00 0.00 0.00 0.00 0.00 0.00 0.00 0.00 0.00 0.00 0.00 0.00 0.00 0.00 0.00 0.00
0.00 0.00 0.00 0.00 0.00 0.00 0.00 0.00 0.00 0.00 0.00 0.00 0.00 0.00 0.00 0.00 0.00 0.00 0.00 0.00 0.00 0.00
0.00 0.00 0.00 0.00 0.00 0.00 0.00 0.00 0.00 0.00 0.00 0.00 0.00 0.00 0.01 0.02 0.02 0.01 0.00 0.00 0.00 0.00
0.00 0.00 0.00 0.00 0.00 0.00 0.00 0.00 0.00 0.00 0.00 0.00 0.00 0.02 0.03 0.04 0.02 0.00 0.00 0.00 0.00 0.00
0.00 0.00 0.00 0.00 0.00 0.00 0.00 0.00 0.00 0.00 0.00 0.00 0.01 0.02 0.02 0.02 0.01 0.01 0.01 0.01 0.01 0.02
0.00 0.00 0.00 0.00 0.00 0.00 0.00 0.00 0.00 0.00 0.00 0.00 0.01 0.01 0.00 0.01 0.01 0.01 0.01 0.01 0.02 0.01
0.00 0.00 0.00 0.00 0.00 0.00 0.00 0.00 0.00 0.00 0.00 0.00 0.00 0.00 0.00 0.00 0.00 0.01 0.01 0.01 0.01 0.00
0.00 0.00 0.00 0.00 0.00 0.00 0.00 0.00 0.00 0.00 0.01 0.01 0.01 0.01 0.01 0.01 0.01 0.01 0.00 0.01 0.00 0.00
MSLP
1017.95 1018.12 1018.24 1018.43 1018.64 1018.92 1019.23 1019.67 1020.11 1020.48 1020.76 1021.06 1021.29 1021.64 1021.84 1022.02 1022.30 1022.18 1022.12 1021.91 1022.11 1021.83
1017.81 1018.18 1018.28 1018.47 1018.61 1018.79 1019.08 1019.40 1019.74 1020.10 1020.45 1020.92 1021.46 1021.72 1021.93 1021.67 1021.84 1022.09 1022.18 1022.27 1022.55 1022.22
1017.69 1018.11 1018.37 1018.63 1018.76 1018.86 1019.01 1019.20 1019.44 1019.91 1020.32 1020.71 1021.18 1021.61 1021.90 1022.17 1022.46 1022.59 1022.58 1022.27 1022.36 1022.70
1017.54 1018.00 1018.37 1018.52 1018.70 1018.84 1019.01 1019.14 1019.30 1019.52 1019.92 1020.31 1020.78 1021.23 1021.57 1021.97 1022.44 1022.77 1022.80 1022.86 1022.90 1022.83
1017.68 1018.05 1018.36 1018.50 1018.72 1018.97 1018.87 1018.94 1019.14 1019.36 1019.67 1020.08 1020.40 1020.92 1021.46 1022.00 1022.35 1022.53 1022.65 1022.83 1023.11 1023.36
1017.85 1018.13 1018.46 1018.73 1018.92 1018.97 1018.85 1018.98 1019.18 1019.40 1019.73 1020.10 1020.47 1020.97 1021.61 1022.04 1022.62 1023.00 1023.21 1023.24 1023.26 1023.58
1018.31 1018.40 1018.83 1019.11 1019.19 1019.10 1019.05 1019.06 1019.24 1019.42 1019.70 1020.13 1020.55 1021.09 1021.50 1022.04 1022.67 1023.12 1023.67 1023.79 1023.86 1023.99
1018.58 1018.65 1018.80 1019.26 1019.44 1019.56 1019.42 1019.42 1019.62 1019.63 1019.84 1020.21 1020.66 1021.12 1021.80 1022.35 1022.73 1023.37 1023.80 1024.00 1024.36 1024.44
1018.74 1018.95 1019.31 1019.61 1019.63 1019.73 1019.90 1020.03 1020.14 1020.20 1020.31 1020.62 1021.08 1021.58 1022.01 1022.43 1022.96 1023.61 1024.01 1024.20 1024.78 1025.00
1019.04 1019.30 1019.67 1019.80 1019.87 1020.04 1020.24 1020.45 1020.76 1020.78 1020.87 1021.25 1021.50 1021.83 1022.16 1022.72 1023.22 1023.54 1024.01 1024.28 1024.73 1025.18
1019.41 1019.56 1020.08 1020.31 1020.32 1020.44 1020.64 1020.94 1021.19 1021.23 1021.28 1021.56 1021.84 1022.16 1022.62 1023.13 1023.53 1023.90 1024.34 1024.63 1024.96 1025.44
1019.70 1019.82 1020.20 1020.20 1020.15 1020.58 1020.81 1021.04 1021.30 1021.47 1021.58 1021.79 1022.17 1022.64 1023.09 1023.24 1023.70 1024.27 1024.74 1025.08 1025.42 1025.69
1019.82 1019.89 1019.99 1020.06 1020.28 1020.68 1020.95 1021.20 1021.43 1021.61 1021.78 1021.97 1022.33 1022.82 1023.30 1023.55 1023.87 1024.38 1024.83 1025.32 1025.69 1026.19
1020.01 1019.95 1020.09 1020.27 1020.59 1020.90 1021.12 1021.42 1021.72 1021.94 1022.16 1022.36 1022.58 1022.89 1023.44 1023.78 1023.96 1024.38 1024.80 1025.13 1025.57 1026.03
Thickness
5585 5581 5577 5573 5569 5564 5559 5554 5547 5543 5539 5536 5533 5531 5528 5525 5522 5523 5524 5525 5523 5526
5577 5569 5564 5559 5554 5550 5545 5540 5535 5531 5526 5521 5517 5514 5512 5515 5512 5509 5509 5508 5504 5508
5567 5558 5552 5545 5540 5536 5531 5526 5522 5516 5512 5508 5503 5499 5496 5493 5490 5489 5488 5491 5489 5487
5554 5545 5539 5533 5528 5523 5518 5513 5509 5505 5501 5496 5491 5485 5482 5478 5474 5471 5471 5469 5468 5468
5539 5533 5527 5522 5516 5508 5506 5501 5496 5493 5488 5483 5479 5473 5467 5462 5459 5458 5456 5453 5449 5446
5522 5516 5511 5505 5499 5495 5492 5487 5482 5478 5474 5469 5465 5459 5452 5447 5440 5436 5431 5429 5427 5423
5502 5498 5490 5484 5481 5479 5477 5474 5469 5464 5461 5456 5451 5445 5439 5432 5424 5419 5412 5408 5405 5402
5485 5481 5477 5469 5464 5460 5459 5458 5453 5451 5447 5443 5437 5431 5423 5416 5410 5402 5396 5392 5386 5382
5469 5465 5459 5454 5451 5447 5443 5440 5437 5434 5432 5427 5421 5415 5409 5403 5395 5387 5382 5377 5367 5362
5456 5450 5444 5440 5437 5432 5429 5425 5420 5417 5414 5409 5405 5401 5395 5388 5382 5377 5369 5364 5356 5347
5440 5435 5428 5424 5420 5416 5413 5408 5404 5402 5400 5395 5390 5385 5379 5372 5365 5359 5352 5346 5339 5329
5425 5421 5414 5412 5410 5404 5400 5397 5393 5389 5386 5381 5375 5367 5360 5356 5349 5341 5334 5327 5321 5313
5411 5408 5405 5403 5398 5392 5388 5384 5379 5375 5371 5366 5360 5351 5344 5338 5332 5325 5318 5310 5304 5297
5397 5396 5393 5390 5384 5379 5375 5370 5364 5359 5354 5348 5343 5336 5327 5321 5316 5309 5303 5298 5291 5283